Overview Statistics Trail Chart Weather Telemetry Raw packets
 

This is the latest recevied weather packets stored in our database for station/object N0HOT. If no packets are shown the sender has not sent any weather packets the latest 10 day(s).

<< 42 43 44 45 46 47 48 >>
Time Temp. Humidity Pressure Rain* Wind** Luminosity Snow
1788368515 26.67° C 69% 1012.8 hPa 0 mm - 355 W/m² -
1788368210 26.67° C 69% 1013.2 hPa 0 mm - 291 W/m² -
1788367904 25.56° C 69% 1013.2 hPa 0 mm - 606 W/m² -
1788367600 25° C 73% 1013.2 hPa 0 mm - 665 W/m² -
1788367298 24.44° C 76% 1013.2 hPa 0 mm - 610 W/m² -
1788366994 23.89° C 80% 1012.8 hPa 0 mm - 737 W/m² -
1788366693 23.33° C 81% 1012.8 hPa 0 mm - 339 W/m² -
1788366392 22.78° C 85% 1012.8 hPa 0 mm - 549 W/m² -
1788366086 22.78° C 87% 1012.8 hPa 0 mm - 468 W/m² -
1788365782 22.78° C 88% 1013.2 hPa 0 mm - 529 W/m² -
1788365478 22.78° C 88% 1013.2 hPa 0 mm - 363 W/m² -
1788365169 22.22° C 88% 1012.8 hPa 0 mm - 404 W/m² -
1788364863 22.22° C 89% 1013.2 hPa 0 mm - 524 W/m² -
1788364561 22.22° C 89% 1013.2 hPa 0 mm - 178 W/m² -
1788364260 22.22° C 89% 1013.2 hPa 0 mm - 204 W/m² -
1788363955 21.67° C 89% 1013.2 hPa 0 mm - 252 W/m² -
1788363650 21.67° C 89% 1013.2 hPa 0 mm - 196 W/m² -
1788363349 21.67° C 89% 1013.6 hPa 0 mm - 67 W/m² -
1788363045 21.67° C 89% 1013.2 hPa 0 mm - 237 W/m² -
1788362741 21.67° C 89% 1013.2 hPa 0 mm - 92 W/m² -
1788362436 21.11° C 89% 1013.2 hPa 0 mm - 168 W/m² -
1788362132 21.11° C 89% 1013.2 hPa 0 mm - 232 W/m² -
1788361852 21.11° C 89% 1012.8 hPa 0 mm - 283 W/m² -
1788361526 21.11° C 89% 1013.2 hPa 0 mm - 127 W/m² -
1788361222 21.11° C 89% 1013.2 hPa 0 mm - 135 W/m² -

* Rain latest hour (hover to see other rain measurements)
** Current wind speed in m/s (hover to see current wind gust speed)